Flag for Iran Weather past 2 weeks in Behbahan, Iran

Now
102 °F

Passing clouds.


Feels Like: 97 °F
Forecast: 78 / 108 °F
Wind: 9 mph from West

Location: Gach Saran Du Gunbadan

Current Time: Sep 3, 2015 at 6:09:37 PM

Latest Report: Sep 3, 2015 at 5:30 PM


Visibility: 4 mi

Pressure: 29.68 "Hg

Humidity: 9%

Dew point: 34 °F

Location of BehbahanLocation

Historic Weather in Behbahan — Graph

°F

Behbahan temperature yesterday

Maximum temperature yesterday: 102 °F (at 3:30 PM)
Minimum temperature yesterday: 75 °F (at 6:30 AM)
Average temperature yesterday: 90 °F

Past Weeks' High & Low Weather Summary

 TemperatureHumidityPressure
High113 °F (Aug 21, 2:30 PM)70% (Aug 21, 6:30 AM)30.12 "Hg (Aug 21, 6:30 AM)
Low66 °F (Aug 28, 3:30 AM)4% (Aug 21, 1:30 PM)29.68 "Hg (Aug 21, 3:30 PM)
Average95 °F22%29.76 "Hg
* Reported Aug 19 4:30 PM — Sep 3 4:30 PM, Behbahan, Weather by CustomWeather, © 2015

Note: Actual official high and low records may vary slightly from our data, if they occured in-between our weather recording intervals... More about our weather records

Advertising

Behbahan weather history for previous 24 hours

 ConditionsComfort  
Time TempWeatherWind HumidityBarometerVisibility
4:30 PM
Thu, Sep 3
104 °FPassing clouds.9 mph9%29.68 "Hg4 mi
3:30 PM108 °FSunny.5 mph6%29.68 "Hg10 mi
2:30 PM106 °FClear.12 mph6%29.71 "Hg4 mi
1:30 PM104 °FClear.No wind7%29.71 "Hg4 mi
12:30 PM102 °FClear.No wind8%29.74 "Hg4 mi
11:30 AM100 °FClear.No wind11%29.74 "Hg4 mi
10:30 AM97 °FClear.No wind13%29.77 "Hg4 mi
9:30 AM91 °FClear.No wind20%29.77 "Hg4 mi
8:30 AM86 °FClear.No wind25%29.74 "Hg4 mi
7:30 AM77 °FClear.No wind34%29.74 "Hg4 mi
6:30 AM75 °FClear.No wind41%29.74 "Hg4 mi
5:30 AM77 °FClear.No wind36%29.74 "Hg4 mi
4:30 AM77 °FClear.No wind36%29.74 "Hg4 mi
3:30 AM79 °FClear.No wind37%29.74 "Hg4 mi
2:30 AM81 °FClear.No wind34%29.74 "Hg5 mi
1:30 AM82 °FClear.No wind30%29.74 "Hg5 mi
12:30 AM84 °FClear.No wind31%29.77 "Hg10 mi
11:30 PM
Wed, Sep 2
86 °FClear.7 mph27%29.77 "Hg10 mi
10:30 PM88 °FClear.No wind22%29.77 "Hg10 mi
9:30 PM91 °FClear.7 mph17%29.74 "Hg10 mi
8:30 PM91 °FSunny.7 mph16%29.74 "Hg10 mi
7:30 PM93 °FClear.9 mph15%29.71 "Hg6 mi
6:30 PM97 °FClear.14 mph13%29.71 "Hg6 mi
Weather by CustomWeather, © 2015

See weather overviewHow to use our weather pages